Weather History for St. Paul, MN

Change the Weather History Date:

Wednesday, August 8, 2012

  Actual Average Record
Temperature  
Mean Temperature 72 °F -  
Max Temperature 78 °F 79 °F 93 °F (2001)
Min Temperature 64 °F 59 °F 55 °F (1999)
Cooling Degree Days 7    
Growing Degree Days 22 (Base 50)    
Moisture  
Dew Point 61 °F    
Average Humidity 73    
Maximum Humidity 87    
Minimum Humidity 58    
Precipitation  
Precipitation 0.05 in - - ()
Sea Level Pressure  
Sea Level Pressure 29.98 in    
Wind  
Wind Speed 4 mph (ENE)    
Max Wind Speed 14 mph    
Max Gust Speed -    
Visibility 10 miles    
Events Rain    
Averages and records for this station are not official NWS values.
T = Trace of Precipitation, MM = Missing Value Source: NWS Daily Summary

Daily Weather History Graph

Daily Weather History Graph

Search for Another Location

Airport:

Trip Planner

Search our weather history database for the weather conditions in past years. The results will help you decide how hot, cold, wet, or windy it might be!

Date:

Astronomy

Aug. 08, 2012 Rise Set
Actual Time 6:06 AM CDT 8:28 PM CDT
Civil Twilight 5:33 AM CDT 9:00 PM CDT
Nautical Twilight 4:52 AM CDT 9:41 PM CDT
Astronomical Twilight 4:07 AM CDT 10:26 PM CDT
Moon 11:20 PM CDT (8/8) 1:14 PM CDT (8/8)
Length of Visible Light 15h 27m
Length of Day
14h 21m
Waning Gibbous, 60% of the Moon is Illuminated
Aug 8
Waning Gibbous
Aug 9
Last Quarter
Aug 17
New
Aug 24
First Quarter
Aug 31
Full

Hourly Weather History & Observations

Time (CDT) Temp. Dew Point Humidity Pressure Visibility Wind Dir Wind Speed Gust Speed Precip Events Conditions
12:53 AM 69.1 °F 59.0 °F 70% 30.00 in 10.0 mi Calm Calm - N/A   Clear
1:53 AM 66.9 °F 60.1 °F 79% 30.00 in 10.0 mi Calm Calm - N/A   Clear
2:53 AM 69.1 °F 60.1 °F 73% 29.98 in 10.0 mi Calm Calm - N/A   Clear
3:53 AM 66.9 °F 60.1 °F 79% 29.98 in 10.0 mi Calm Calm - N/A   Partly Cloudy
4:53 AM 66.9 °F 60.1 °F 79% 29.95 in 10.0 mi ENE 5.8 mph - N/A   Clear
5:53 AM 68.0 °F 57.9 °F 70% 29.94 in 10.0 mi East 6.9 mph - N/A   Clear
6:53 AM 68.0 °F 57.0 °F 68% 29.97 in 10.0 mi SSE 5.8 mph - N/A   Partly Cloudy
7:53 AM 68.0 °F 57.9 °F 70% 30.01 in 10.0 mi Calm Calm - N/A   Mostly Cloudy
8:53 AM 68.0 °F 61.0 °F 78% 29.97 in 10.0 mi ESE 6.9 mph - 0.04 in Rain Light Rain
9:53 AM 69.1 °F 60.1 °F 73% 29.99 in 10.0 mi ESE 5.8 mph - 0.00 in   Overcast
10:53 AM 71.1 °F 60.1 °F 68% 30.01 in 10.0 mi ESE 4.6 mph - 0.01 in   Scattered Clouds
11:53 AM 75.0 °F 62.1 °F 64% 29.98 in 10.0 mi East 8.1 mph - N/A   Scattered Clouds
12:53 PM 75.0 °F 61.0 °F 62% 29.95 in 10.0 mi ENE 8.1 mph - N/A   Scattered Clouds
1:53 PM 78.1 °F 63.0 °F 60% 29.94 in 10.0 mi ESE 9.2 mph - N/A   Clear
2:53 PM 75.9 °F 60.1 °F 58% 29.95 in 10.0 mi ENE 5.8 mph - N/A   Overcast
3:53 PM 75.0 °F 61.0 °F 62% 29.95 in 10.0 mi ESE 4.6 mph - N/A   Overcast
4:53 PM 73.0 °F 64.0 °F 73% 29.95 in 10.0 mi NNE 12.7 mph - N/A   Overcast
5:53 PM 71.6 °F 62.6 °F 73% 29.97 in 10.0 mi NNE 13.8 mph - N/A   Overcast
6:53 PM 70.0 °F 62.1 °F 76% 29.98 in 10.0 mi NE 13.8 mph - 0.00 in Rain Light Rain
7:53 PM 68.0 °F 63.0 °F 84% 29.98 in 10.0 mi NE 12.7 mph - 0.00 in   Overcast
8:53 PM 68.0 °F 63.0 °F 84% 29.98 in 10.0 mi NNE 4.6 mph - N/A   Overcast
9:53 PM 66.9 °F 62.1 °F 84% 30.00 in 10.0 mi NNW 4.6 mph - N/A   Overcast
10:53 PM 66.0 °F 61.0 °F 84% 29.99 in 10.0 mi North 4.6 mph - N/A   Scattered Clouds
11:53 PM 64.9 °F 61.0 °F 87% 29.99 in 10.0 mi North 3.5 mph - N/A   Clear